SENTINEL-2C (60989 NORAD) Tracking and Keplerian Element Data

This shows tracking and keplerian element data for the satellite.

Feedback or suggestion? Click here.




ElementValue
Catalog60989
NameSENTINEL-2C
Epoch Orbit536
Epoch Day286.4655185
Epoch Year2024
RAAN359.1079
Inclination98.567
Eccentricity0.000266
Argument of Perigee157.028
Mean Anonmoly203.1025
Mean Motion14.34462283
Decay Rate8.91E-06
L11 60989U 24157A 24286.46551850 .00000891 00000+0 33191-3 0 9994
L22 60989 98.5670 359.1079 0002660 157.0280 203.1025 14.34462283 5364



Live tracking and technical data element details for SENTINEL-2C (NORAD 60989). SENTINEL-2C can be tracked NOW for your location showing map with azimuth and elevation plus other details from your city location.







IsCatalogInMostPopularTable: catalog: 60989, numindb: 7
Update: records affected: 1



GetName: 60989 SENTINEL-2C

Hit Count: updated at: Fri, 06 Dec 2024 11:58:31 GMT